TimeCST,TemperatureF,Dew PointF,Humidity,Sea Level PressureIn,VisibilityMPH,Wind Direction,Wind SpeedMPH,Gust SpeedMPH,PrecipitationIn,Events,Conditions,WindDirDegrees,DateUTC
12:52 AM,23.0,18.0,81,30.08,10.0,South,5.8,-,N/A,,Overcast,170,2014-01-15 06:52:00
1:52 AM,24.1,19.0,81,30.02,10.0,South,4.6,-,N/A,,Overcast,180,2014-01-15 07:52:00
2:52 AM,24.1,19.9,84,29.98,10.0,SSW,3.5,-,N/A,,Overcast,200,2014-01-15 08:52:00
3:52 AM,25.0,21.0,85,29.92,10.0,South,4.6,-,N/A,,Overcast,190,2014-01-15 09:52:00
4:52 AM,27.0,23.0,85,29.86,10.0,SSW,5.8,-,N/A,,Overcast,200,2014-01-15 10:52:00
5:52 AM,30.0,26.1,85,29.81,10.0,SSW,9.2,-,N/A,,Overcast,210,2014-01-15 11:52:00
6:52 AM,30.0,26.1,85,29.80,10.0,SE,3.5,-,N/A,,Overcast,140,2014-01-15 12:52:00
7:52 AM,37.0,28.9,73,29.73,10.0,WSW,19.6,-,N/A,,Mostly Cloudy,250,2014-01-15 13:52:00
8:52 AM,37.0,28.9,73,29.71,10.0,WSW,19.6,-,N/A,,Mostly Cloudy,240,2014-01-15 14:52:00
9:52 AM,37.9,28.9,70,29.69,10.0,West,25.3,31.1,N/A,,Clear,260,2014-01-15 15:52:00
10:52 AM,37.9,28.9,70,29.70,10.0,West,27.6,36.8,N/A,,Clear,280,2014-01-15 16:52:00
11:52 AM,41.0,30.0,65,29.69,10.0,West,18.4,31.1,N/A,,Clear,270,2014-01-15 17:52:00
12:52 PM,42.1,28.9,60,29.67,10.0,West,19.6,-,N/A,,Clear,270,2014-01-15 18:52:00
1:52 PM,41.0,30.0,65,29.66,10.0,West,18.4,26.5,N/A,,Clear,270,2014-01-15 19:52:00
2:52 PM,41.0,28.0,60,29.67,10.0,NW,29.9,40.3,N/A,,Scattered Clouds,310,2014-01-15 20:52:00
3:52 PM,41.0,28.0,60,29.69,10.0,NW,25.3,33.4,N/A,,Partly Cloudy,320,2014-01-15 21:52:00
4:52 PM,39.0,26.1,60,29.70,10.0,WNW,27.6,43.7,N/A,,Clear,300,2014-01-15 22:52:00
5:52 PM,37.0,25.0,62,29.70,10.0,WNW,25.3,34.5,N/A,,Clear,300,2014-01-15 23:52:00
6:52 PM,37.0,24.1,59,29.72,10.0,WNW,31.1,43.7,N/A,,Clear,300,2014-01-16 00:52:00
7:52 PM,36.0,24.1,62,29.71,10.0,WNW,36.8,48.3,N/A,,Clear,300,2014-01-16 01:52:00
8:52 PM,36.0,25.0,64,29.74,10.0,NW,36.8,52.9,N/A,,Clear,310,2014-01-16 02:52:00
9:52 PM,36.0,24.1,62,29.78,10.0,NW,39.1,54.1,N/A,,Mostly Cloudy,320,2014-01-16 03:52:00
10:52 PM,36.0,24.1,62,29.81,10.0,NW,39.1,51.8,N/A,,Clear,320,2014-01-16 04:52:00
11:52 PM,39.0,23.0,53,29.82,10.0,NW,32.2,43.7,N/A,,Clear,310,2014-01-16 05:52:00